Time,TemperatureF,DewpointF,PressureIn,WindDirection,WindDirectionDegrees,WindSpeedMPH,WindSpeedGustMPH,Humidity,HourlyPrecipIn,Conditions,Clouds,dailyrainin,SoftwareType,DateUTC
2013-06-18 00:12:00,72.2,57.0,29.76,NNW,347,0.0,0.0,60,0.00,,,0.00,weatherlink.com 1.10,2013-06-18 05:12:00,
2013-06-18 00:27:00,71.8,57.0,29.76,NNW,347,0.0,0.0,60,0.00,,,0.00,weatherlink.com 1.10,2013-06-18 05:27:00,
2013-06-18 00:42:00,71.7,57.0,29.77,NNW,347,0.0,0.0,60,0.00,,,0.00,weatherlink.com 1.10,2013-06-18 05:42:00,
2013-06-18 00:57:00,71.3,57.0,29.76,NNW,347,0.0,0.0,61,0.00,,,0.00,weatherlink.com 1.10,2013-06-18 05:57:00,
2013-06-18 01:12:00,71.1,56.0,29.75,NNW,347,0.0,0.0,60,0.00,,,0.00,weatherlink.com 1.10,2013-06-18 06:12:00,
2013-06-18 01:27:00,70.9,56.0,29.75,NNW,347,0.0,0.0,60,0.00,,,0.00,weatherlink.com 1.10,2013-06-18 06:27:00,
2013-06-18 01:42:00,70.4,56.0,29.76,NNW,347,0.0,0.0,61,0.00,,,0.00,weatherlink.com 1.10,2013-06-18 06:42:00,
2013-06-18 01:57:00,70.4,56.0,29.76,NNW,347,0.0,0.0,60,0.00,,,0.00,weatherlink.com 1.10,2013-06-18 06:57:00,
2013-06-18 02:12:00,70.3,57.0,29.76,NNW,347,0.0,0.0,62,0.00,,,0.00,weatherlink.com 1.10,2013-06-18 07:12:00,
2013-06-18 02:27:00,70.1,56.0,29.76,NNW,347,0.0,0.0,61,0.00,,,0.00,weatherlink.com 1.10,2013-06-18 07:27:00,
2013-06-18 02:42:00,70.0,56.0,29.77,NNW,347,0.0,0.0,62,0.00,,,0.00,weatherlink.com 1.10,2013-06-18 07:42:00,
2013-06-18 02:57:00,69.5,57.0,29.76,NNW,347,0.0,0.0,64,0.00,,,0.00,weatherlink.com 1.10,2013-06-18 07:57:00,
2013-06-18 03:12:00,68.7,58.0,29.77,NNW,347,0.0,0.0,68,0.00,,,0.00,weatherlink.com 1.10,2013-06-18 08:12:00,
2013-06-18 03:27:00,68.1,58.0,29.77,NNW,347,0.0,0.0,69,0.00,,,0.00,weatherlink.com 1.10,2013-06-18 08:27:00,
2013-06-18 03:42:00,67.6,57.0,29.76,NNW,347,0.0,0.0,70,0.00,,,0.00,weatherlink.com 1.10,2013-06-18 08:42:00,
2013-06-18 03:57:00,67.1,58.0,29.76,NNW,347,0.0,0.0,73,0.00,,,0.00,weatherlink.com 1.10,2013-06-18 08:57:00,
2013-06-18 04:12:00,66.4,58.0,29.77,NNW,347,0.0,0.0,75,0.00,,,0.00,weatherlink.com 1.10,2013-06-18 09:12:00,
2013-06-18 04:28:00,65.9,58.0,29.77,NNW,347,0.0,0.0,75,0.00,,,0.00,weatherlink.com 1.10,2013-06-18 09:28:00,
2013-06-18 04:43:00,65.3,58.0,29.77,NNW,347,0.0,0.0,77,0.00,,,0.00,weatherlink.com 1.10,2013-06-18 09:43:00,
2013-06-18 04:58:00,64.9,58.0,29.77,NNW,347,0.0,0.0,78,0.00,,,0.00,weatherlink.com 1.10,2013-06-18 09:58:00,
2013-06-18 05:13:00,64.5,58.0,29.77,NNW,347,0.0,0.0,80,0.00,,,0.00,weatherlink.com 1.10,2013-06-18 10:13:00,
2013-06-18 05:28:00,64.1,58.0,29.77,NNW,347,0.0,0.0,81,0.00,,,0.00,weatherlink.com 1.10,2013-06-18 10:28:00,
2013-06-18 05:43:00,63.8,59.0,29.78,NNW,347,0.0,0.0,83,0.00,,,0.00,weatherlink.com 1.10,2013-06-18 10:43:00,
2013-06-18 05:58:00,63.6,59.0,29.78,NNW,347,0.0,0.0,84,0.00,,,0.00,weatherlink.com 1.10,2013-06-18 10:58:00,
2013-06-18 06:13:00,63.6,59.0,29.80,NNW,347,0.0,0.0,85,0.00,,,0.00,weatherlink.com 1.10,2013-06-18 11:13:00,
2013-06-18 06:28:00,64.3,59.0,29.82,NNW,347,0.0,0.0,82,0.00,,,0.00,weatherlink.com 1.10,2013-06-18 11:28:00,
2013-06-18 06:43:00,65.2,60.0,29.81,NNW,346,0.0,0.0,83,0.00,,,0.00,weatherlink.com 1.10,2013-06-18 11:43:00,
2013-06-18 06:58:00,64.5,60.0,29.81,NNW,346,0.0,0.0,84,0.00,,,0.00,weatherlink.com 1.10,2013-06-18 11:58:00,
2013-06-18 07:13:00,64.1,60.0,29.80,NNW,346,0.0,0.0,86,0.00,,,0.00,weatherlink.com 1.10,2013-06-18 12:13:00,
2013-06-18 07:28:00,64.2,60.0,29.80,NNW,346,0.0,0.0,87,0.00,,,0.00,weatherlink.com 1.10,2013-06-18 12:28:00,
2013-06-18 07:43:00,64.9,61.0,29.81,NNW,346,0.0,0.0,87,0.00,,,0.00,weatherlink.com 1.10,2013-06-18 12:43:00,
2013-06-18 07:58:00,65.4,62.0,29.81,NNW,346,0.0,0.0,87,0.00,,,0.00,weatherlink.com 1.10,2013-06-18 12:58:00,
2013-06-18 08:13:00,65.9,61.0,29.83,NNW,346,0.0,1.0,84,0.00,,,0.00,weatherlink.com 1.10,2013-06-18 13:13:00,
2013-06-18 08:28:00,65.7,62.0,29.79,SSE,166,0.0,1.0,88,0.00,,,0.00,weatherlink.com 1.10,2013-06-18 13:28:00,
2013-06-18 08:43:00,64.6,62.0,29.82,NW,321,0.0,3.0,91,0.00,,,0.00,weatherlink.com 1.10,2013-06-18 13:43:00,
2013-06-18 08:58:00,64.7,63.0,29.82,NW,321,0.0,0.0,93,0.00,,,0.00,weatherlink.com 1.10,2013-06-18 13:58:00,
2013-06-18 09:13:00,64.9,63.0,29.83,NW,321,0.0,0.0,93,0.00,,,0.00,weatherlink.com 1.10,2013-06-18 14:13:00,
2013-06-18 09:28:00,65.3,64.0,29.84,NW,321,0.0,0.0,94,0.00,,,0.00,weatherlink.com 1.10,2013-06-18 14:28:00,
2013-06-18 09:43:00,65.7,64.0,29.82,NW,321,0.0,0.0,94,0.00,,,0.00,weatherlink.com 1.10,2013-06-18 14:43:00,
2013-06-18 09:58:00,66.0,64.0,29.82,NW,321,0.0,0.0,94,0.00,,,0.00,weatherlink.com 1.10,2013-06-18 14:58:00,
2013-06-18 10:13:00,66.3,64.0,29.83,NW,321,0.0,0.0,93,0.00,,,0.00,weatherlink.com 1.10,2013-06-18 15:13:00,
2013-06-18 10:28:00,66.5,65.0,29.82,NW,321,0.0,0.0,93,0.01,,,0.01,weatherlink.com 1.10,2013-06-18 15:28:00,
2013-06-18 10:43:00,66.3,64.0,29.82,NW,321,0.0,0.0,93,0.04,,,0.04,weatherlink.com 1.10,2013-06-18 15:43:00,
2013-06-18 10:58:00,66.3,65.0,29.82,NW,321,0.0,0.0,94,0.04,,,0.04,weatherlink.com 1.10,2013-06-18 15:58:00,
2013-06-18 11:13:00,66.5,64.0,29.83,NW,321,0.0,0.0,91,0.04,,,0.04,weatherlink.com 1.10,2013-06-18 16:13:00,
2013-06-18 11:28:00,66.4,64.0,29.86,NW,321,0.0,0.0,93,0.03,,,0.04,weatherlink.com 1.10,2013-06-18 16:28:00,
2013-06-18 11:43:00,66.0,64.0,29.84,NW,321,0.0,0.0,92,0.00,,,0.04,weatherlink.com 1.10,2013-06-18 16:43:00,
2013-06-18 11:58:00,66.4,65.0,29.83,NW,321,0.0,0.0,95,0.00,,,0.04,weatherlink.com 1.10,2013-06-18 16:58:00,
2013-06-18 12:13:00,67.5,65.0,29.83,NW,305,0.0,1.0,92,0.00,,,0.04,weatherlink.com 1.10,2013-06-18 17:13:00,
2013-06-18 12:28:00,68.8,65.0,29.82,NW,305,0.0,0.0,88,0.00,,,0.04,weatherlink.com 1.10,2013-06-18 17:28:00,
2013-06-18 12:43:00,70.0,65.0,29.82,East,84,0.0,1.0,85,0.00,,,0.04,weatherlink.com 1.10,2013-06-18 17:43:00,
2013-06-18 12:58:00,71.9,69.0,29.81,SSW,212,0.0,1.0,89,0.00,,,0.04,weatherlink.com 1.10,2013-06-18 17:58:00,
2013-06-18 13:13:00,73.6,67.0,29.81,SSW,212,0.0,1.0,80,0.00,,,0.04,weatherlink.com 1.10,2013-06-18 18:13:00,
2013-06-18 13:28:00,75.6,68.0,29.80,SW,222,0.0,1.0,76,0.00,,,0.04,weatherlink.com 1.10,2013-06-18 18:28:00,
2013-06-18 13:43:00,76.6,68.0,29.80,SW,215,0.0,1.0,74,0.00,,,0.04,weatherlink.com 1.10,2013-06-18 18:43:00,
2013-06-18 13:58:00,77.5,64.0,29.80,SW,216,0.0,0.0,63,0.00,,,0.04,weatherlink.com 1.10,2013-06-18 18:58:00,
2013-06-18 14:13:00,78.2,62.0,29.80,SW,219,0.0,1.0,58,0.00,,,0.04,weatherlink.com 1.10,2013-06-18 19:13:00,
2013-06-18 14:28:00,79.2,63.0,29.80,SW,219,0.0,1.0,58,0.00,,,0.04,weatherlink.com 1.10,2013-06-18 19:28:00,
2013-06-18 14:44:00,79.9,62.0,29.79,SW,219,0.0,1.0,54,0.00,,,0.04,weatherlink.com 1.10,2013-06-18 19:44:00,
2013-06-18 14:59:00,80.1,61.0,29.79,SW,219,0.0,0.0,52,0.00,,,0.04,weatherlink.com 1.10,2013-06-18 19:59:00,
2013-06-18 15:14:00,80.9,60.0,29.80,SW,216,0.0,1.0,49,0.00,,,0.04,weatherlink.com 1.10,2013-06-18 20:14:00,
2013-06-18 15:29:00,80.7,61.0,29.79,SSW,200,0.0,0.0,52,0.00,,,0.04,weatherlink.com 1.10,2013-06-18 20:29:00,
2013-06-18 15:44:00,81.0,60.0,29.79,SSW,200,0.0,1.0,49,0.00,,,0.04,weatherlink.com 1.10,2013-06-18 20:44:00,
2013-06-18 15:59:00,82.2,62.0,29.78,SSW,213,0.0,1.0,50,0.00,,,0.04,weatherlink.com 1.10,2013-06-18 20:59:00,
2013-06-18 16:14:00,83.0,59.0,29.78,SSW,212,1.0,2.0,44,0.00,,,0.04,weatherlink.com 1.10,2013-06-18 21:14:00,
2013-06-18 16:29:00,83.8,59.0,29.77,SSW,212,0.0,1.0,43,0.00,,,0.04,weatherlink.com 1.10,2013-06-18 21:29:00,
2013-06-18 16:44:00,83.2,57.0,29.76,SSW,212,0.0,0.0,41,0.00,,,0.04,weatherlink.com 1.10,2013-06-18 21:44:00,
2013-06-18 16:59:00,84.2,57.0,29.76,SSW,212,0.0,1.0,40,0.00,,,0.04,weatherlink.com 1.10,2013-06-18 21:59:00,
2013-06-18 17:14:00,84.7,61.0,29.75,SSW,212,0.0,1.0,45,0.00,,,0.04,weatherlink.com 1.10,2013-06-18 22:14:00,
2013-06-18 17:29:00,84.5,60.0,29.75,SW,216,0.0,1.0,44,0.00,,,0.04,weatherlink.com 1.10,2013-06-18 22:29:00,
2013-06-18 17:44:00,84.6,58.0,29.75,SW,217,0.0,0.0,41,0.00,,,0.04,weatherlink.com 1.10,2013-06-18 22:44:00,
2013-06-18 17:59:00,85.6,59.0,29.75,SW,217,0.0,1.0,40,0.00,,,0.04,weatherlink.com 1.10,2013-06-18 22:59:00,
2013-06-18 18:14:00,85.9,59.0,29.74,West,269,0.0,1.0,40,0.00,,,0.04,weatherlink.com 1.10,2013-06-18 23:14:00,
2013-06-18 18:29:00,85.5,60.0,29.73,West,269,0.0,1.0,43,0.00,,,0.04,weatherlink.com 1.10,2013-06-18 23:29:00,
2013-06-18 18:44:00,85.4,61.0,29.74,West,269,0.0,0.0,44,0.00,,,0.04,weatherlink.com 1.10,2013-06-18 23:44:00,
2013-06-18 18:59:00,85.2,59.0,29.74,SSE,162,0.0,1.0,41,0.00,,,0.04,weatherlink.com 1.10,2013-06-18 23:59:00,
2013-06-18 19:14:00,85.6,61.0,29.74,South,176,0.0,2.0,43,0.00,,,0.04,weatherlink.com 1.10,2013-06-19 00:14:00,
2013-06-18 19:29:00,85.3,58.0,29.74,SW,224,0.0,0.0,40,0.00,,,0.04,weatherlink.com 1.10,2013-06-19 00:29:00,
2013-06-18 19:44:00,83.7,58.0,29.74,SW,224,0.0,0.0,41,0.00,,,0.04,weatherlink.com 1.10,2013-06-19 00:44:00,
2013-06-18 19:59:00,82.3,60.0,29.74,SW,224,0.0,0.0,47,0.00,,,0.04,weatherlink.com 1.10,2013-06-19 00:59:00,
2013-06-18 20:14:00,80.4,61.0,29.74,SW,224,0.0,0.0,52,0.00,,,0.04,weatherlink.com 1.10,2013-06-19 01:14:00,
2013-06-18 20:29:00,78.5,62.0,29.74,SW,224,0.0,0.0,57,0.00,,,0.04,weatherlink.com 1.10,2013-06-19 01:29:00,
2013-06-18 20:44:00,76.7,62.0,29.74,SW,224,0.0,0.0,61,0.00,,,0.04,weatherlink.com 1.10,2013-06-19 01:44:00,
2013-06-18 20:59:00,74.9,60.0,29.73,SW,224,0.0,0.0,60,0.00,,,0.04,weatherlink.com 1.10,2013-06-19 01:59:00,
2013-06-18 21:14:00,73.4,59.0,29.74,SW,224,0.0,0.0,62,0.00,,,0.04,weatherlink.com 1.10,2013-06-19 02:14:00,
2013-06-18 21:29:00,72.2,61.0,29.74,SW,224,0.0,0.0,67,0.00,,,0.04,weatherlink.com 1.10,2013-06-19 02:29:00,
2013-06-18 21:44:00,71.2,61.0,29.75,SW,224,0.0,0.0,69,0.00,,,0.04,weatherlink.com 1.10,2013-06-19 02:44:00,
2013-06-18 21:59:00,70.1,59.0,29.75,SW,224,0.0,0.0,69,0.00,,,0.04,weatherlink.com 1.10,2013-06-19 02:59:00,
2013-06-18 22:14:00,69.3,60.0,29.76,SW,224,0.0,0.0,71,0.00,,,0.04,weatherlink.com 1.10,2013-06-19 03:14:00,
2013-06-18 22:29:00,68.6,58.0,29.76,SW,224,0.0,0.0,70,0.00,,,0.04,weatherlink.com 1.10,2013-06-19 03:29:00,
2013-06-18 22:44:00,68.0,58.0,29.76,SW,224,0.0,0.0,71,0.00,,,0.04,weatherlink.com 1.10,2013-06-19 03:44:00,
2013-06-18 22:59:00,67.5,59.0,29.76,SW,224,0.0,0.0,75,0.00,,,0.04,weatherlink.com 1.10,2013-06-19 03:59:00,
2013-06-18 23:14:00,67.0,58.0,29.76,SW,224,0.0,0.0,74,0.00,,,0.04,weatherlink.com 1.10,2013-06-19 04:14:00,
2013-06-18 23:29:00,66.6,58.0,29.76,SW,224,0.0,0.0,75,0.00,,,0.04,weatherlink.com 1.10,2013-06-19 04:29:00,
2013-06-18 23:44:00,66.2,58.0,29.76,SW,224,0.0,0.0,74,0.00,,,0.04,weatherlink.com 1.10,2013-06-19 04:44:00,
2013-06-18 23:59:00,66.1,58.0,29.76,SW,224,0.0,0.0,75,0.00,,,0.04,weatherlink.com 1.10,2013-06-19 04:59:00,